Time,TemperatureF,DewpointF,PressureIn,WindDirection,WindDirectionDegrees,WindSpeedMPH,WindSpeedGustMPH,Humidity,HourlyPrecipIn,Conditions,Clouds,dailyrainin,SolarRadiationWatts/m^2,SoftwareType,DateUTC
2013-07-06 00:01:00,80.4,72.9,29.89,ENE,67,1.0,6.0,78,0.00,,,-99.99,0,WeatherLink 5.4,2013-07-06 04:01:00,
2013-07-06 00:10:00,80.4,72.9,29.89,ESE,112,0.0,1.0,78,0.00,,,-99.99,0,WeatherLink 5.4,2013-07-06 04:10:00,
2013-07-06 00:11:00,80.4,72.9,29.89,ESE,112,0.0,1.0,78,0.00,,,-99.99,0,WeatherLink 5.4,2013-07-06 04:11:00,
2013-07-06 00:16:00,80.4,72.9,29.89,ESE,112,0.0,1.0,78,0.00,,,-99.99,0,WeatherLink 5.4,2013-07-06 04:16:00,
2013-07-06 00:20:00,80.4,72.9,29.88,East,90,1.0,10.0,78,0.00,,,-99.99,0,WeatherLink 5.4,2013-07-06 04:20:00,
2013-07-06 00:21:00,80.4,72.9,29.88,East,90,1.0,10.0,78,0.00,,,-99.99,0,WeatherLink 5.4,2013-07-06 04:21:00,
2013-07-06 00:25:00,80.4,72.9,29.88,East,90,1.0,10.0,78,0.00,,,-99.99,0,WeatherLink 5.4,2013-07-06 04:25:00,
2013-07-06 00:30:00,80.3,72.8,29.88,East,90,3.0,12.0,78,0.00,,,-99.99,0,WeatherLink 5.4,2013-07-06 04:30:00,
2013-07-06 00:31:00,80.3,72.8,29.88,East,90,3.0,12.0,78,0.00,,,-99.99,0,WeatherLink 5.4,2013-07-06 04:31:00,
2013-07-06 00:36:00,80.3,72.8,29.88,East,90,3.0,12.0,78,0.00,,,-99.99,0,WeatherLink 5.4,2013-07-06 04:36:00,
2013-07-06 00:40:00,80.3,72.8,29.88,East,90,1.0,7.0,78,0.00,,,-99.99,0,WeatherLink 5.4,2013-07-06 04:40:00,
2013-07-06 00:41:00,80.3,72.8,29.88,East,90,1.0,7.0,78,0.00,,,-99.99,0,WeatherLink 5.4,2013-07-06 04:41:00,
2013-07-06 00:46:00,80.3,72.8,29.88,East,90,1.0,7.0,78,0.00,,,-99.99,0,WeatherLink 5.4,2013-07-06 04:46:00,
2013-07-06 00:50:00,80.3,73.2,29.88,East,90,0.0,1.0,79,0.00,,,-99.99,0,WeatherLink 5.4,2013-07-06 04:50:00,
2013-07-06 00:51:00,80.3,73.2,29.88,East,90,0.0,1.0,79,0.00,,,-99.99,0,WeatherLink 5.4,2013-07-06 04:51:00,
2013-07-06 00:57:00,80.3,73.2,29.88,East,90,0.0,1.0,79,0.00,,,-99.99,0,WeatherLink 5.4,2013-07-06 04:57:00,
2013-07-06 01:00:00,80.1,73.0,29.87,ENE,67,0.0,6.0,79,0.00,,,-99.99,0,WeatherLink 5.4,2013-07-06 05:00:00,
2013-07-06 01:02:00,80.1,73.0,29.87,ENE,67,0.0,6.0,79,0.00,,,-99.99,0,WeatherLink 5.4,2013-07-06 05:02:00,
2013-07-06 01:08:00,80.1,73.0,29.87,ENE,67,0.0,6.0,79,0.00,,,-99.99,0,WeatherLink 5.4,2013-07-06 05:08:00,
2013-07-06 01:10:00,80.1,73.0,29.87,East,90,1.0,7.0,79,0.00,,,-99.99,0,WeatherLink 5.4,2013-07-06 05:10:00,
2013-07-06 01:13:00,80.1,73.0,29.87,East,90,1.0,7.0,79,0.00,,,-99.99,0,WeatherLink 5.4,2013-07-06 05:13:00,
2013-07-06 01:19:00,80.1,73.0,29.87,East,90,1.0,7.0,79,0.00,,,-99.99,0,WeatherLink 5.4,2013-07-06 05:19:00,
2013-07-06 01:20:00,80.0,72.9,29.86,ENE,67,2.0,11.0,79,0.00,,,-99.99,0,WeatherLink 5.4,2013-07-06 05:20:00,
2013-07-06 01:24:00,80.0,72.9,29.86,ENE,67,2.0,11.0,79,0.00,,,-99.99,0,WeatherLink 5.4,2013-07-06 05:24:00,
2013-07-06 01:30:00,79.9,72.4,29.86,East,90,1.0,8.0,78,0.00,,,-99.99,0,WeatherLink 5.4,2013-07-06 05:30:00,
2013-07-06 01:31:00,79.9,72.4,29.86,East,90,1.0,8.0,78,0.00,,,-99.99,0,WeatherLink 5.4,2013-07-06 05:31:00,
2013-07-06 01:37:00,79.9,72.4,29.86,East,90,1.0,8.0,78,0.00,,,-99.99,0,WeatherLink 5.4,2013-07-06 05:37:00,
2013-07-06 01:40:00,79.9,72.4,29.86,ENE,67,0.0,5.0,78,0.00,,,-99.99,0,WeatherLink 5.4,2013-07-06 05:40:00,
2013-07-06 01:42:00,79.9,72.4,29.86,ENE,67,0.0,5.0,78,0.00,,,-99.99,0,WeatherLink 5.4,2013-07-06 05:42:00,
2013-07-06 01:47:00,79.9,72.4,29.86,ENE,67,0.0,5.0,78,0.00,,,-99.99,0,WeatherLink 5.4,2013-07-06 05:47:00,
2013-07-06 01:50:00,79.8,72.3,29.86,ENE,67,0.0,7.0,78,0.00,,,-99.99,0,WeatherLink 5.4,2013-07-06 05:50:00,
2013-07-06 01:52:00,79.8,72.3,29.86,ENE,67,0.0,7.0,78,0.00,,,-99.99,0,WeatherLink 5.4,2013-07-06 05:52:00,
2013-07-06 01:58:00,79.8,72.3,29.86,ENE,67,0.0,7.0,78,0.00,,,-99.99,0,WeatherLink 5.4,2013-07-06 05:58:00,
2013-07-06 02:00:00,79.8,71.9,29.86,East,90,0.0,5.0,77,0.00,,,-99.99,0,WeatherLink 5.4,2013-07-06 06:00:00,
2013-07-06 02:04:00,79.8,71.9,29.86,East,90,0.0,5.0,77,0.00,,,-99.99,0,WeatherLink 5.4,2013-07-06 06:04:00,
2013-07-06 02:10:00,79.7,71.8,29.86,East,90,0.0,3.0,77,0.00,,,-99.99,0,WeatherLink 5.4,2013-07-06 06:10:00,
2013-07-06 02:11:00,79.7,71.8,29.86,East,90,0.0,3.0,77,0.00,,,-99.99,0,WeatherLink 5.4,2013-07-06 06:11:00,
2013-07-06 02:12:00,79.7,71.8,29.86,East,90,0.0,3.0,77,0.00,,,-99.99,0,WeatherLink 5.4,2013-07-06 06:12:00,
2013-07-06 02:17:00,79.7,71.8,29.86,East,90,0.0,3.0,77,0.00,,,-99.99,0,WeatherLink 5.4,2013-07-06 06:17:00,
2013-07-06 02:20:00,79.6,72.1,29.86,NE,45,0.0,1.0,78,0.00,,,-99.99,0,WeatherLink 5.4,2013-07-06 06:20:00,
2013-07-06 02:22:00,79.6,72.1,29.86,NE,45,0.0,1.0,78,0.00,,,-99.99,0,WeatherLink 5.4,2013-07-06 06:22:00,
2013-07-06 02:28:00,79.6,72.1,29.86,NE,45,0.0,1.0,78,0.00,,,-99.99,0,WeatherLink 5.4,2013-07-06 06:28:00,
2013-07-06 02:30:00,79.4,71.9,29.85,ENE,67,0.0,6.0,78,0.00,,,-99.99,0,WeatherLink 5.4,2013-07-06 06:30:00,
2013-07-06 02:34:00,79.4,71.9,29.85,ENE,67,0.0,6.0,78,0.00,,,-99.99,0,WeatherLink 5.4,2013-07-06 06:34:00,
2013-07-06 02:40:00,79.4,71.9,29.85,East,90,0.0,7.0,78,0.00,,,-99.99,0,WeatherLink 5.4,2013-07-06 06:40:00,
2013-07-06 02:41:00,79.4,71.9,29.85,East,90,0.0,7.0,78,0.00,,,-99.99,0,WeatherLink 5.4,2013-07-06 06:41:00,
2013-07-06 02:46:00,79.4,71.9,29.85,East,90,0.0,7.0,78,0.00,,,-99.99,0,WeatherLink 5.4,2013-07-06 06:46:00,
2013-07-06 02:50:00,79.4,71.9,29.85,East,90,0.0,6.0,78,0.00,,,-99.99,0,WeatherLink 5.4,2013-07-06 06:50:00,
2013-07-06 02:51:00,79.4,71.9,29.85,East,90,0.0,6.0,78,0.00,,,-99.99,0,WeatherLink 5.4,2013-07-06 06:51:00,
2013-07-06 02:57:00,79.4,71.9,29.85,East,90,0.0,6.0,78,0.00,,,-99.99,0,WeatherLink 5.4,2013-07-06 06:57:00,
2013-07-06 03:00:00,79.4,71.9,29.84,East,90,1.0,7.0,78,0.00,,,-99.99,0,WeatherLink 5.4,2013-07-06 07:00:00,
2013-07-06 03:03:00,79.4,71.9,29.84,East,90,1.0,7.0,78,0.00,,,-99.99,0,WeatherLink 5.4,2013-07-06 07:03:00,
2013-07-06 03:08:00,79.4,71.9,29.84,East,90,1.0,7.0,78,0.00,,,-99.99,0,WeatherLink 5.4,2013-07-06 07:08:00,
2013-07-06 03:10:00,79.4,71.9,29.84,East,90,0.0,6.0,78,0.00,,,-99.99,0,WeatherLink 5.4,2013-07-06 07:10:00,
2013-07-06 03:14:00,79.4,71.9,29.84,East,90,0.0,6.0,78,0.00,,,-99.99,0,WeatherLink 5.4,2013-07-06 07:14:00,
2013-07-06 03:20:00,79.5,72.0,29.84,ENE,67,1.0,7.0,78,0.00,,,-99.99,0,WeatherLink 5.4,2013-07-06 07:20:00,
2013-07-06 03:21:00,79.5,72.0,29.84,ENE,67,1.0,7.0,78,0.00,,,-99.99,0,WeatherLink 5.4,2013-07-06 07:21:00,
2013-07-06 03:26:00,79.5,72.0,29.84,ENE,67,1.0,7.0,78,0.00,,,-99.99,0,WeatherLink 5.4,2013-07-06 07:26:00,
2013-07-06 03:30:00,79.6,72.1,29.84,East,90,0.0,3.0,78,0.00,,,-99.99,0,WeatherLink 5.4,2013-07-06 07:30:00,
2013-07-06 03:31:00,79.6,72.1,29.84,East,90,0.0,3.0,78,0.00,,,-99.99,0,WeatherLink 5.4,2013-07-06 07:31:00,
2013-07-06 03:36:00,79.6,72.1,29.84,East,90,0.0,3.0,78,0.00,,,-99.99,0,WeatherLink 5.4,2013-07-06 07:36:00,
2013-07-06 03:40:00,79.6,72.1,29.84,ESE,112,1.0,7.0,78,0.00,,,-99.99,0,WeatherLink 5.4,2013-07-06 07:40:00,
2013-07-06 03:41:00,79.6,72.1,29.84,ESE,112,1.0,7.0,78,0.00,,,-99.99,0,WeatherLink 5.4,2013-07-06 07:41:00,
2013-07-06 03:47:00,79.6,72.1,29.84,ESE,112,1.0,7.0,78,0.00,,,-99.99,0,WeatherLink 5.4,2013-07-06 07:47:00,
2013-07-06 03:50:00,79.6,72.1,29.84,East,90,1.0,7.0,78,0.00,,,-99.99,0,WeatherLink 5.4,2013-07-06 07:50:00,
2013-07-06 03:52:00,79.6,72.1,29.84,East,90,1.0,7.0,78,0.00,,,-99.99,0,WeatherLink 5.4,2013-07-06 07:52:00,
2013-07-06 03:57:00,79.6,72.1,29.84,East,90,1.0,7.0,78,0.00,,,-99.99,0,WeatherLink 5.4,2013-07-06 07:57:00,
2013-07-06 04:00:00,79.6,72.1,29.85,East,90,0.0,6.0,78,0.00,,,-99.99,0,WeatherLink 5.4,2013-07-06 08:00:00,
2013-07-06 04:02:00,79.6,72.1,29.85,East,90,0.0,6.0,78,0.00,,,-99.99,0,WeatherLink 5.4,2013-07-06 08:02:00,
2013-07-06 04:07:00,79.6,72.1,29.85,East,90,0.0,6.0,78,0.00,,,-99.99,0,WeatherLink 5.4,2013-07-06 08:07:00,
2013-07-06 04:10:00,79.6,72.1,29.85,East,90,0.0,5.0,78,0.00,,,-99.99,0,WeatherLink 5.4,2013-07-06 08:10:00,
2013-07-06 04:12:00,79.6,72.1,29.85,East,90,0.0,5.0,78,0.00,,,-99.99,0,WeatherLink 5.4,2013-07-06 08:12:00,
2013-07-06 04:17:00,79.6,72.1,29.85,East,90,0.0,5.0,78,0.00,,,-99.99,0,WeatherLink 5.4,2013-07-06 08:17:00,
2013-07-06 04:20:00,79.6,72.1,29.85,East,90,0.0,1.0,78,0.00,,,-99.99,0,WeatherLink 5.4,2013-07-06 08:20:00,
2013-07-06 04:23:00,79.6,72.1,29.85,East,90,0.0,1.0,78,0.00,,,-99.99,0,WeatherLink 5.4,2013-07-06 08:23:00,
2013-07-06 04:29:00,79.6,72.1,29.85,East,90,0.0,1.0,78,0.00,,,-99.99,0,WeatherLink 5.4,2013-07-06 08:29:00,
2013-07-06 04:30:00,79.5,72.0,29.85,East,90,0.0,1.0,78,0.00,,,-99.99,0,WeatherLink 5.4,2013-07-06 08:30:00,
2013-07-06 04:34:00,79.5,72.0,29.85,East,90,0.0,1.0,78,0.00,,,-99.99,0,WeatherLink 5.4,2013-07-06 08:34:00,
2013-07-06 04:39:00,79.5,72.0,29.85,East,90,0.0,1.0,78,0.00,,,-99.99,0,WeatherLink 5.4,2013-07-06 08:39:00,
2013-07-06 04:40:00,79.4,72.3,29.85,East,90,2.0,11.0,79,0.00,,,-99.99,0,WeatherLink 5.4,2013-07-06 08:40:00,
2013-07-06 04:45:00,79.4,72.3,29.85,East,90,2.0,11.0,79,0.00,,,-99.99,0,WeatherLink 5.4,2013-07-06 08:45:00,
2013-07-06 04:50:00,79.2,72.5,29.85,ENE,67,0.0,5.0,80,0.00,,,-99.99,0,WeatherLink 5.4,2013-07-06 08:50:00,
2013-07-06 04:51:00,79.2,72.5,29.85,ENE,67,0.0,5.0,80,0.00,,,-99.99,0,WeatherLink 5.4,2013-07-06 08:51:00,
2013-07-06 04:56:00,79.2,72.5,29.85,ENE,67,0.0,5.0,80,0.00,,,-99.99,0,WeatherLink 5.4,2013-07-06 08:56:00,
2013-07-06 05:00:00,79.0,72.3,29.85,East,90,0.0,6.0,80,0.00,,,-99.99,0,WeatherLink 5.4,2013-07-06 09:00:00,
2013-07-06 05:01:00,79.0,72.3,29.85,East,90,0.0,6.0,80,0.00,,,-99.99,0,WeatherLink 5.4,2013-07-06 09:01:00,
2013-07-06 05:07:00,79.0,72.3,29.85,East,90,0.0,6.0,80,0.00,,,-99.99,0,WeatherLink 5.4,2013-07-06 09:07:00,
2013-07-06 05:10:00,78.8,72.1,29.85,East,90,0.0,1.0,80,0.00,,,-99.99,0,WeatherLink 5.4,2013-07-06 09:10:00,
2013-07-06 05:13:00,78.8,72.1,29.85,East,90,0.0,1.0,80,0.00,,,-99.99,0,WeatherLink 5.4,2013-07-06 09:13:00,
2013-07-06 05:19:00,78.8,72.1,29.85,East,90,0.0,1.0,80,0.00,,,-99.99,0,WeatherLink 5.4,2013-07-06 09:19:00,
2013-07-06 05:20:00,78.8,72.1,29.86,East,90,0.0,4.0,80,0.00,,,-99.99,0,WeatherLink 5.4,2013-07-06 09:20:00,
2013-07-06 05:24:00,78.8,72.1,29.86,East,90,0.0,4.0,80,0.00,,,-99.99,0,WeatherLink 5.4,2013-07-06 09:24:00,
2013-07-06 05:29:00,78.8,72.1,29.86,East,90,0.0,4.0,80,0.00,,,-99.99,0,WeatherLink 5.4,2013-07-06 09:29:00,
2013-07-06 05:30:00,78.8,72.1,29.86,East,90,0.0,5.0,80,0.00,,,-99.99,0,WeatherLink 5.4,2013-07-06 09:30:00,
2013-07-06 05:35:00,78.8,72.1,29.86,East,90,0.0,5.0,80,0.00,,,-99.99,0,WeatherLink 5.4,2013-07-06 09:35:00,
2013-07-06 05:40:00,78.7,72.0,29.86,East,90,1.0,6.0,80,0.00,,,-99.99,0,WeatherLink 5.4,2013-07-06 09:40:00,
2013-07-06 05:41:00,78.7,72.0,29.86,East,90,1.0,6.0,80,0.00,,,-99.99,0,WeatherLink 5.4,2013-07-06 09:41:00,
2013-07-06 05:46:00,78.7,72.0,29.86,East,90,1.0,6.0,80,0.00,,,-99.99,0,WeatherLink 5.4,2013-07-06 09:46:00,
2013-07-06 05:50:00,78.8,71.7,29.86,East,90,2.0,10.0,79,0.00,,,-99.99,1,WeatherLink 5.4,2013-07-06 09:50:00,
2013-07-06 05:52:00,78.8,71.7,29.86,East,90,2.0,10.0,79,0.00,,,-99.99,1,WeatherLink 5.4,2013-07-06 09:52:00,
2013-07-06 05:58:00,78.8,71.7,29.86,East,90,2.0,10.0,79,0.00,,,-99.99,1,WeatherLink 5.4,2013-07-06 09:58:00,
2013-07-06 06:00:00,78.8,71.7,29.86,East,90,1.0,8.0,79,0.00,,,-99.99,7,WeatherLink 5.4,2013-07-06 10:00:00,
2013-07-06 06:04:00,78.8,71.7,29.86,East,90,1.0,8.0,79,0.00,,,-99.99,7,WeatherLink 5.4,2013-07-06 10:04:00,
2013-07-06 06:10:00,78.8,71.7,29.86,East,90,0.0,1.0,79,0.00,,,-99.99,13,WeatherLink 5.4,2013-07-06 10:10:00,
2013-07-06 06:11:00,78.8,71.7,29.86,East,90,0.0,1.0,79,0.00,,,-99.99,13,WeatherLink 5.4,2013-07-06 10:11:00,
2013-07-06 06:16:00,78.8,71.7,29.86,East,90,0.0,1.0,79,0.00,,,-99.99,13,WeatherLink 5.4,2013-07-06 10:16:00,
2013-07-06 06:20:00,78.8,71.7,29.87,North,-999,0.0,0.0,79,0.00,,,-99.99,27,WeatherLink 5.4,2013-07-06 10:20:00,
2013-07-06 06:22:00,78.8,71.7,29.87,North,-999,0.0,0.0,79,0.00,,,-99.99,27,WeatherLink 5.4,2013-07-06 10:22:00,
2013-07-06 06:28:00,78.8,71.7,29.87,North,-999,0.0,0.0,79,0.00,,,-99.99,27,WeatherLink 5.4,2013-07-06 10:28:00,
2013-07-06 06:30:00,78.8,71.7,29.87,ESE,112,0.0,2.0,79,0.00,,,-99.99,53,WeatherLink 5.4,2013-07-06 10:30:00,
2013-07-06 06:33:00,78.8,71.7,29.87,ESE,112,0.0,2.0,79,0.00,,,-99.99,53,WeatherLink 5.4,2013-07-06 10:33:00,
2013-07-06 06:38:00,78.8,71.7,29.87,ESE,112,0.0,2.0,79,0.00,,,-99.99,53,WeatherLink 5.4,2013-07-06 10:38:00,
2013-07-06 06:40:00,79.0,71.9,29.87,East,90,0.0,5.0,79,0.00,,,-99.99,44,WeatherLink 5.4,2013-07-06 10:40:00,
2013-07-06 06:44:00,79.0,71.9,29.87,East,90,0.0,5.0,79,0.00,,,-99.99,44,WeatherLink 5.4,2013-07-06 10:44:00,
2013-07-06 06:50:00,79.2,72.1,29.88,East,90,0.0,5.0,79,0.00,,,-99.99,35,WeatherLink 5.4,2013-07-06 10:50:00,
2013-07-06 06:51:00,79.2,72.1,29.88,East,90,0.0,5.0,79,0.00,,,-99.99,35,WeatherLink 5.4,2013-07-06 10:51:00,
2013-07-06 06:56:00,79.2,72.1,29.88,East,90,0.0,5.0,79,0.00,,,-99.99,35,WeatherLink 5.4,2013-07-06 10:56:00,
2013-07-06 07:00:00,79.2,72.1,29.88,East,90,1.0,7.0,79,0.00,,,-99.99,36,WeatherLink 5.4,2013-07-06 11:00:00,
2013-07-06 07:02:00,79.2,72.1,29.88,East,90,1.0,7.0,79,0.00,,,-99.99,36,WeatherLink 5.4,2013-07-06 11:02:00,
2013-07-06 07:07:00,79.2,72.1,29.88,East,90,1.0,7.0,79,0.00,,,-99.99,36,WeatherLink 5.4,2013-07-06 11:07:00,
2013-07-06 07:10:00,79.4,72.3,29.88,East,90,0.0,3.0,79,0.00,,,-99.99,52,WeatherLink 5.4,2013-07-06 11:10:00,
2013-07-06 07:13:00,79.4,72.3,29.88,East,90,0.0,3.0,79,0.00,,,-99.99,52,WeatherLink 5.4,2013-07-06 11:13:00,
2013-07-06 07:18:00,79.4,72.3,29.88,East,90,0.0,3.0,79,0.00,,,-99.99,52,WeatherLink 5.4,2013-07-06 11:18:00,
2013-07-06 07:20:00,79.5,72.4,29.89,East,90,0.0,6.0,79,0.00,,,-99.99,167,WeatherLink 5.4,2013-07-06 11:20:00,
2013-07-06 07:24:00,79.5,72.4,29.89,East,90,0.0,6.0,79,0.00,,,-99.99,167,WeatherLink 5.4,2013-07-06 11:24:00,
2013-07-06 07:29:00,79.5,72.4,29.89,East,90,0.0,6.0,79,0.00,,,-99.99,167,WeatherLink 5.4,2013-07-06 11:29:00,
2013-07-06 07:30:00,79.6,71.8,29.89,NNE,22,0.0,6.0,77,0.00,,,-99.99,195,WeatherLink 5.4,2013-07-06 11:30:00,
2013-07-06 07:34:00,79.6,71.8,29.89,NNE,22,0.0,6.0,77,0.00,,,-99.99,195,WeatherLink 5.4,2013-07-06 11:34:00,
2013-07-06 07:39:00,79.6,71.8,29.89,NNE,22,0.0,6.0,77,0.00,,,-99.99,195,WeatherLink 5.4,2013-07-06 11:39:00,
2013-07-06 07:40:00,79.6,71.8,29.89,East,90,1.0,6.0,77,0.00,,,-99.99,141,WeatherLink 5.4,2013-07-06 11:40:00,
2013-07-06 07:44:00,79.6,71.8,29.89,East,90,1.0,6.0,77,0.00,,,-99.99,141,WeatherLink 5.4,2013-07-06 11:44:00,
2013-07-06 07:50:00,79.7,71.8,29.89,North,-999,0.0,0.0,77,0.00,,,-99.99,182,WeatherLink 5.4,2013-07-06 11:50:00,
2013-07-06 07:51:00,79.7,71.8,29.89,North,-999,0.0,0.0,77,0.00,,,-99.99,182,WeatherLink 5.4,2013-07-06 11:51:00,
2013-07-06 07:57:00,79.7,71.8,29.89,North,-999,0.0,0.0,77,0.00,,,-99.99,182,WeatherLink 5.4,2013-07-06 11:57:00,
2013-07-06 08:00:00,80.1,71.1,29.89,East,90,2.0,12.0,74,0.00,,,-99.99,193,WeatherLink 5.4,2013-07-06 12:00:00,
2013-07-06 08:03:00,80.1,71.1,29.89,East,90,2.0,12.0,74,0.00,,,-99.99,193,WeatherLink 5.4,2013-07-06 12:03:00,
2013-07-06 08:08:00,80.1,71.1,29.89,East,90,2.0,12.0,74,0.00,,,-99.99,193,WeatherLink 5.4,2013-07-06 12:08:00,
2013-07-06 08:10:00,81.0,70.3,29.89,East,90,3.0,12.0,70,0.00,,,-99.99,384,WeatherLink 5.4,2013-07-06 12:10:00,
2013-07-06 08:13:00,81.0,70.3,29.89,East,90,3.0,12.0,70,0.00,,,-99.99,384,WeatherLink 5.4,2013-07-06 12:13:00,
2013-07-06 08:18:00,81.0,70.3,29.89,East,90,3.0,12.0,70,0.00,,,-99.99,384,WeatherLink 5.4,2013-07-06 12:18:00,
2013-07-06 08:20:00,81.8,71.1,29.89,East,90,3.0,11.0,70,0.00,,,-99.99,236,WeatherLink 5.4,2013-07-06 12:20:00,
2013-07-06 08:24:00,81.8,71.1,29.89,East,90,3.0,11.0,70,0.00,,,-99.99,236,WeatherLink 5.4,2013-07-06 12:24:00,
2013-07-06 08:29:00,81.8,71.1,29.89,East,90,3.0,11.0,70,0.00,,,-99.99,236,WeatherLink 5.4,2013-07-06 12:29:00,
2013-07-06 08:30:00,81.8,70.6,29.90,East,90,2.0,13.0,69,0.00,,,-99.99,253,WeatherLink 5.4,2013-07-06 12:30:00,
2013-07-06 08:34:00,81.8,70.6,29.90,East,90,2.0,13.0,69,0.00,,,-99.99,253,WeatherLink 5.4,2013-07-06 12:34:00,
2013-07-06 08:40:00,82.2,70.6,29.90,East,90,2.0,12.0,68,0.00,,,-99.99,257,WeatherLink 5.4,2013-07-06 12:40:00,
2013-07-06 08:42:00,82.2,70.6,29.90,East,90,2.0,12.0,68,0.00,,,-99.99,257,WeatherLink 5.4,2013-07-06 12:42:00,
2013-07-06 08:48:00,82.2,70.6,29.90,East,90,2.0,12.0,68,0.00,,,-99.99,257,WeatherLink 5.4,2013-07-06 12:48:00,
2013-07-06 08:50:00,82.8,70.3,29.90,East,90,3.0,11.0,66,0.00,,,-99.99,647,WeatherLink 5.4,2013-07-06 12:50:00,
2013-07-06 08:52:00,82.8,70.3,29.90,East,90,3.0,11.0,66,0.00,,,-99.99,647,WeatherLink 5.4,2013-07-06 12:52:00,
2013-07-06 08:57:00,82.8,70.3,29.90,East,90,3.0,11.0,66,0.00,,,-99.99,647,WeatherLink 5.4,2013-07-06 12:57:00,
2013-07-06 09:00:00,83.3,71.2,29.90,East,90,3.0,11.0,67,0.00,,,-99.99,551,WeatherLink 5.4,2013-07-06 13:00:00,
2013-07-06 09:03:00,83.3,71.2,29.90,East,90,3.0,11.0,67,0.00,,,-99.99,551,WeatherLink 5.4,2013-07-06 13:03:00,
2013-07-06 09:09:00,83.3,71.2,29.90,East,90,3.0,11.0,67,0.00,,,-99.99,551,WeatherLink 5.4,2013-07-06 13:09:00,
2013-07-06 09:10:00,83.8,70.8,29.90,East,90,3.0,13.0,65,0.00,,,-99.99,632,WeatherLink 5.4,2013-07-06 13:10:00,
2013-07-06 09:14:00,83.8,70.8,29.90,East,90,3.0,13.0,65,0.00,,,-99.99,632,WeatherLink 5.4,2013-07-06 13:14:00,
2013-07-06 09:20:00,83.7,71.1,29.90,East,90,3.0,12.0,66,0.00,,,-99.99,208,WeatherLink 5.4,2013-07-06 13:20:00,
2013-07-06 09:21:00,83.7,71.1,29.90,East,90,3.0,12.0,66,0.00,,,-99.99,208,WeatherLink 5.4,2013-07-06 13:21:00,
2013-07-06 09:26:00,83.7,71.1,29.90,East,90,3.0,12.0,66,0.00,,,-99.99,208,WeatherLink 5.4,2013-07-06 13:26:00,
2013-07-06 09:30:00,83.5,70.9,29.90,East,90,3.0,13.0,66,0.00,,,-99.99,672,WeatherLink 5.4,2013-07-06 13:30:00,
2013-07-06 09:32:00,83.5,70.9,29.90,East,90,3.0,13.0,66,0.00,,,-99.99,672,WeatherLink 5.4,2013-07-06 13:32:00,
2013-07-06 09:38:00,83.5,70.9,29.90,East,90,3.0,13.0,66,0.00,,,-99.99,672,WeatherLink 5.4,2013-07-06 13:38:00,
2013-07-06 09:40:00,84.1,71.5,29.90,ENE,67,4.0,13.0,66,0.00,,,-99.99,216,WeatherLink 5.4,2013-07-06 13:40:00,
2013-07-06 09:43:00,84.1,71.5,29.90,ENE,67,4.0,13.0,66,0.00,,,-99.99,216,WeatherLink 5.4,2013-07-06 13:43:00,
2013-07-06 09:49:00,84.1,71.5,29.90,ENE,67,4.0,13.0,66,0.00,,,-99.99,216,WeatherLink 5.4,2013-07-06 13:49:00,
2013-07-06 09:50:00,83.7,72.0,29.90,ENE,67,3.0,12.0,68,0.00,,,-99.99,202,WeatherLink 5.4,2013-07-06 13:50:00,
2013-07-06 09:55:00,83.7,72.0,29.90,ENE,67,3.0,12.0,68,0.00,,,-99.99,202,WeatherLink 5.4,2013-07-06 13:55:00,
2013-07-06 10:00:00,83.5,71.8,29.90,East,90,3.0,11.0,68,0.00,,,-99.99,238,WeatherLink 5.4,2013-07-06 14:00:00,
2013-07-06 10:06:00,83.5,71.8,29.90,East,90,3.0,11.0,68,0.00,,,-99.99,238,WeatherLink 5.4,2013-07-06 14:06:00,
2013-07-06 10:10:00,84.0,71.4,29.90,ENE,67,2.0,8.0,66,0.00,,,-99.99,901,WeatherLink 5.4,2013-07-06 14:10:00,
2013-07-06 10:11:00,84.0,71.4,29.90,ENE,67,2.0,8.0,66,0.00,,,-99.99,901,WeatherLink 5.4,2013-07-06 14:11:00,
2013-07-06 10:16:00,84.0,71.4,29.90,ENE,67,2.0,8.0,66,0.00,,,-99.99,901,WeatherLink 5.4,2013-07-06 14:16:00,
2013-07-06 10:20:00,84.3,72.1,29.90,East,90,2.0,14.0,67,0.00,,,-99.99,729,WeatherLink 5.4,2013-07-06 14:20:00,
2013-07-06 10:22:00,84.3,72.1,29.90,East,90,2.0,14.0,67,0.00,,,-99.99,729,WeatherLink 5.4,2013-07-06 14:22:00,
2013-07-06 10:28:00,84.3,72.1,29.90,East,90,2.0,14.0,67,0.00,,,-99.99,729,WeatherLink 5.4,2013-07-06 14:28:00,
2013-07-06 10:30:00,84.1,72.0,29.90,East,90,2.0,8.0,67,0.00,,,-99.99,957,WeatherLink 5.4,2013-07-06 14:30:00,
2013-07-06 10:33:00,84.1,72.0,29.90,East,90,2.0,8.0,67,0.00,,,-99.99,957,WeatherLink 5.4,2013-07-06 14:33:00,
2013-07-06 10:38:00,84.1,72.0,29.90,East,90,2.0,8.0,67,0.00,,,-99.99,957,WeatherLink 5.4,2013-07-06 14:38:00,
2013-07-06 10:40:00,84.2,71.6,29.90,East,90,2.0,13.0,66,0.00,,,-99.99,941,WeatherLink 5.4,2013-07-06 14:40:00,
2013-07-06 10:43:00,84.2,71.6,29.90,East,90,2.0,13.0,66,0.00,,,-99.99,941,WeatherLink 5.4,2013-07-06 14:43:00,
2013-07-06 10:49:00,84.2,71.6,29.90,East,90,2.0,13.0,66,0.00,,,-99.99,941,WeatherLink 5.4,2013-07-06 14:49:00,
2013-07-06 10:50:00,84.9,71.8,29.90,East,90,3.0,9.0,65,0.00,,,-99.99,963,WeatherLink 5.4,2013-07-06 14:50:00,
2013-07-06 10:55:00,84.9,71.8,29.90,East,90,3.0,9.0,65,0.00,,,-99.99,963,WeatherLink 5.4,2013-07-06 14:55:00,
2013-07-06 11:00:00,85.4,72.3,29.89,East,90,3.0,10.0,65,0.00,,,-99.99,950,WeatherLink 5.4,2013-07-06 15:00:00,
2013-07-06 11:02:00,85.4,72.3,29.89,East,90,3.0,10.0,65,0.00,,,-99.99,950,WeatherLink 5.4,2013-07-06 15:02:00,
2013-07-06 11:07:00,85.4,72.3,29.89,East,90,3.0,10.0,65,0.00,,,-99.99,950,WeatherLink 5.4,2013-07-06 15:07:00,
2013-07-06 11:10:00,85.4,72.3,29.89,East,90,2.0,8.0,65,0.00,,,-99.99,837,WeatherLink 5.4,2013-07-06 15:10:00,
2013-07-06 11:12:00,85.4,72.3,29.89,East,90,2.0,8.0,65,0.00,,,-99.99,837,WeatherLink 5.4,2013-07-06 15:12:00,
2013-07-06 11:17:00,85.4,72.3,29.89,East,90,2.0,8.0,65,0.00,,,-99.99,837,WeatherLink 5.4,2013-07-06 15:17:00,
2013-07-06 11:18:00,85.4,72.3,29.89,East,90,2.0,8.0,65,0.00,,,-99.99,837,WeatherLink 5.4,2013-07-06 15:18:00,
2013-07-06 11:20:00,85.3,71.7,29.89,ENE,67,4.0,13.0,64,0.00,,,-99.99,853,WeatherLink 5.4,2013-07-06 15:20:00,
2013-07-06 11:25:00,85.3,71.7,29.89,ENE,67,4.0,13.0,64,0.00,,,-99.99,853,WeatherLink 5.4,2013-07-06 15:25:00,
2013-07-06 11:30:00,85.1,70.6,29.89,East,90,4.0,12.0,62,0.00,,,-99.99,954,WeatherLink 5.4,2013-07-06 15:30:00,
2013-07-06 11:35:00,85.1,70.6,29.89,East,90,4.0,12.0,62,0.00,,,-99.99,954,WeatherLink 5.4,2013-07-06 15:35:00,
2013-07-06 11:40:00,85.3,70.3,29.89,East,90,3.0,13.0,61,0.00,,,-99.99,1017,WeatherLink 5.4,2013-07-06 15:40:00,
2013-07-06 11:50:00,85.9,70.4,29.89,East,90,3.0,11.0,60,0.00,,,-99.99,1021,WeatherLink 5.4,2013-07-06 15:50:00,
2013-07-06 12:00:00,86.4,70.9,29.88,ENE,67,4.0,8.0,60,0.00,,,-99.99,1001,WeatherLink 5.4,2013-07-06 16:00:00,
2013-07-06 12:10:00,85.9,70.4,29.88,East,90,7.0,10.0,60,0.00,,,-99.99,1001,WeatherLink 5.4,2013-07-06 16:10:00,
2013-07-06 12:20:00,86.0,70.5,29.88,ENE,67,2.0,8.0,60,0.00,,,-99.99,1001,WeatherLink 5.4,2013-07-06 16:20:00,
2013-07-06 12:30:00,86.3,70.8,29.88,NE,45,2.0,7.0,60,0.00,,,-99.99,1001,WeatherLink 5.4,2013-07-06 16:30:00,
2013-07-06 12:40:00,86.3,70.8,29.88,East,90,3.0,7.0,60,0.00,,,-99.99,1001,WeatherLink 5.4,2013-07-06 16:40:00,
2013-07-06 12:50:00,86.3,70.8,29.87,ENE,67,6.0,11.0,60,0.00,,,-99.99,1001,WeatherLink 5.4,2013-07-06 16:50:00,
2013-07-06 13:00:00,86.3,70.8,29.87,East,90,5.0,8.0,60,0.00,,,-99.99,1001,WeatherLink 5.4,2013-07-06 17:00:00,
2013-07-06 13:10:00,85.9,70.4,29.87,ENE,67,4.0,13.0,60,0.00,,,-99.99,1001,WeatherLink 5.4,2013-07-06 17:10:00,
2013-07-06 13:20:00,86.4,70.9,29.86,ENE,67,3.0,8.0,60,0.00,,,-99.99,1001,WeatherLink 5.4,2013-07-06 17:20:00,
2013-07-06 13:30:00,86.1,70.6,29.86,ENE,67,2.0,7.0,60,0.00,,,-99.99,1001,WeatherLink 5.4,2013-07-06 17:30:00,
2013-07-06 13:40:00,86.5,71.0,29.86,ENE,67,3.0,5.0,60,0.00,,,-99.99,1001,WeatherLink 5.4,2013-07-06 17:40:00,
2013-07-06 13:50:00,85.8,71.7,29.85,ENE,67,2.0,16.0,63,0.00,,,-99.99,515,WeatherLink 5.4,2013-07-06 17:50:00,
2013-07-06 14:00:00,85.7,72.1,29.84,ENE,67,3.0,13.0,64,0.00,,,-99.99,595,WeatherLink 5.4,2013-07-06 18:00:00,
2013-07-06 14:10:00,86.1,72.5,29.84,NE,45,3.0,8.0,64,0.00,,,-99.99,595,WeatherLink 5.4,2013-07-06 18:10:00,
2013-07-06 14:20:00,86.3,72.7,29.84,ENE,67,5.0,10.0,64,0.00,,,-99.99,595,WeatherLink 5.4,2013-07-06 18:20:00,
2013-07-06 14:30:00,85.5,71.9,29.84,ENE,67,1.0,6.0,64,0.00,,,-99.99,595,WeatherLink 5.4,2013-07-06 18:30:00,
2013-07-06 14:40:00,84.7,71.2,29.84,North,-999,0.0,0.0,64,0.00,,,-99.99,245,WeatherLink 5.4,2013-07-06 18:40:00,
2013-07-06 14:50:00,84.3,70.8,29.84,NE,45,2.0,8.0,64,0.00,,,-99.99,245,WeatherLink 5.4,2013-07-06 18:50:00,
2013-07-06 15:00:00,83.6,70.1,29.83,ENE,67,3.0,6.0,64,0.00,,,-99.99,245,WeatherLink 5.4,2013-07-06 19:00:00,
2013-07-06 15:10:00,83.6,70.1,29.83,NE,45,1.0,2.0,64,0.00,,,-99.99,267,WeatherLink 5.4,2013-07-06 19:10:00,
2013-07-06 15:20:00,83.2,69.8,29.83,ESE,112,3.0,8.0,64,0.00,,,-99.99,267,WeatherLink 5.4,2013-07-06 19:20:00,
2013-07-06 15:30:00,-999.0,-99.9,29.84,SE,135,5.0,10.0,64,0.24,,,-99.99,267,WeatherLink 5.4,2013-07-06 19:30:00,
2013-07-06 15:40:00,78.6,65.4,29.84,North,-999,0.0,0.0,64,0.24,,,-99.99,35,WeatherLink 5.4,2013-07-06 19:40:00,
2013-07-06 15:50:00,78.1,74.3,29.83,North,-999,0.0,0.0,88,0.28,,,-99.99,51,WeatherLink 5.4,2013-07-06 19:50:00,
2013-07-06 16:00:00,78.2,74.7,29.83,North,-999,0.0,0.0,89,0.28,,,-99.99,45,WeatherLink 5.4,2013-07-06 20:00:00,
2013-07-06 16:10:00,78.5,75.0,29.83,North,-999,0.0,0.0,89,0.28,,,-99.99,25,WeatherLink 5.4,2013-07-06 20:10:00,
2013-07-06 16:20:00,78.2,74.7,29.83,SE,135,1.0,5.0,89,0.31,,,-99.99,25,WeatherLink 5.4,2013-07-06 20:20:00,
2013-07-06 16:30:00,78.1,74.6,29.82,North,-999,0.0,0.0,89,0.07,,,-99.99,25,WeatherLink 5.4,2013-07-06 20:30:00,
2013-07-06 16:40:00,78.3,74.8,29.82,North,-999,0.0,0.0,89,0.07,,,-99.99,118,WeatherLink 5.4,2013-07-06 20:40:00,
2013-07-06 16:50:00,78.2,74.7,29.81,North,-999,0.0,0.0,89,0.03,,,-99.99,118,WeatherLink 5.4,2013-07-06 20:50:00,
2013-07-06 17:00:00,78.5,75.0,29.81,North,-999,0.0,0.0,89,0.03,,,-99.99,118,WeatherLink 5.4,2013-07-06 21:00:00,
2013-07-06 17:10:00,78.6,75.1,29.81,North,-999,0.0,0.0,89,0.03,,,-99.99,118,WeatherLink 5.4,2013-07-06 21:10:00,
2013-07-06 17:20:00,79.0,75.5,29.81,North,-999,0.0,0.0,89,0.00,,,-99.99,86,WeatherLink 5.4,2013-07-06 21:20:00,
2013-07-06 17:30:00,79.4,75.9,29.81,North,-999,0.0,0.0,89,0.00,,,-99.99,86,WeatherLink 5.4,2013-07-06 21:30:00,
2013-07-06 17:40:00,79.4,75.9,29.81,East,90,4.0,17.0,89,0.00,,,-99.99,130,WeatherLink 5.4,2013-07-06 21:40:00,
2013-07-06 17:50:00,77.6,72.7,29.82,ESE,112,6.0,11.0,85,0.06,,,-99.99,69,WeatherLink 5.4,2013-07-06 21:50:00,
2013-07-06 18:00:00,76.7,72.9,29.82,ESE,112,1.0,7.0,88,0.07,,,-99.99,67,WeatherLink 5.4,2013-07-06 22:00:00,
2013-07-06 18:10:00,76.3,72.5,29.82,ENE,67,2.0,5.0,88,0.07,,,-99.99,63,WeatherLink 5.4,2013-07-06 22:10:00,
2013-07-06 18:20:00,76.3,72.5,29.83,North,-999,0.0,0.0,88,0.07,,,-99.99,55,WeatherLink 5.4,2013-07-06 22:20:00,
2013-07-06 18:30:00,76.3,72.5,29.83,East,90,1.0,3.0,88,0.07,,,-99.99,55,WeatherLink 5.4,2013-07-06 22:30:00,
2013-07-06 18:40:00,76.5,72.7,29.83,North,-999,0.0,0.0,88,0.07,,,-99.99,32,WeatherLink 5.4,2013-07-06 22:40:00,
2013-07-06 18:50:00,76.5,72.7,29.83,North,-999,0.0,0.0,88,0.01,,,-99.99,23,WeatherLink 5.4,2013-07-06 22:50:00,
2013-07-06 19:00:00,76.5,72.7,29.83,North,-999,0.0,0.0,88,0.00,,,-99.99,23,WeatherLink 5.4,2013-07-06 23:00:00,
2013-07-06 19:10:00,76.3,72.5,29.83,North,-999,0.0,0.0,88,0.00,,,-99.99,7,WeatherLink 5.4,2013-07-06 23:10:00,
2013-07-06 19:20:00,76.1,72.3,29.83,North,-999,0.0,0.0,88,0.00,,,-99.99,0,WeatherLink 5.4,2013-07-06 23:20:00,
2013-07-06 19:30:00,76.0,72.2,29.83,North,-999,0.0,0.0,88,0.00,,,-99.99,0,WeatherLink 5.4,2013-07-06 23:30:00,
2013-07-06 19:40:00,76.0,72.2,29.83,North,-999,0.0,0.0,88,0.00,,,-99.99,0,WeatherLink 5.4,2013-07-06 23:40:00,
2013-07-06 19:50:00,76.0,72.5,29.84,North,-999,0.0,0.0,89,0.00,,,-99.99,0,WeatherLink 5.4,2013-07-06 23:50:00,
2013-07-06 20:00:00,76.0,72.5,29.84,North,-999,0.0,0.0,89,0.00,,,-99.99,0,WeatherLink 5.4,2013-07-07 00:00:00,
2013-07-06 20:10:00,76.0,72.5,29.84,North,-999,0.0,0.0,89,0.00,,,-99.99,0,WeatherLink 5.4,2013-07-07 00:10:00,
2013-07-06 20:20:00,76.1,72.6,29.84,North,-999,0.0,0.0,89,0.00,,,-99.99,0,WeatherLink 5.4,2013-07-07 00:20:00,
2013-07-06 20:30:00,76.1,72.6,29.85,North,-999,0.0,0.0,89,0.00,,,-99.99,0,WeatherLink 5.4,2013-07-07 00:30:00,
2013-07-06 20:40:00,76.5,73.0,29.85,North,-999,0.0,0.0,89,0.00,,,-99.99,0,WeatherLink 5.4,2013-07-07 00:40:00,
2013-07-06 20:50:00,76.5,73.0,29.85,North,-999,0.0,0.0,89,0.01,,,-99.99,0,WeatherLink 5.4,2013-07-07 00:50:00,
2013-07-06 21:00:00,76.5,73.0,29.85,North,-999,0.0,0.0,89,0.01,,,-99.99,0,WeatherLink 5.4,2013-07-07 01:00:00,
2013-07-06 21:10:00,76.5,73.0,29.85,North,-999,0.0,0.0,89,0.01,,,-99.99,0,WeatherLink 5.4,2013-07-07 01:10:00,
2013-07-06 21:20:00,76.7,73.2,29.85,North,-999,0.0,0.0,89,0.01,,,-99.99,0,WeatherLink 5.4,2013-07-07 01:20:00,
2013-07-06 21:30:00,76.5,73.0,29.85,North,-999,0.0,0.0,89,0.01,,,-99.99,0,WeatherLink 5.4,2013-07-07 01:30:00,
2013-07-06 21:40:00,76.5,73.0,29.85,North,-999,0.0,0.0,89,0.01,,,-99.99,0,WeatherLink 5.4,2013-07-07 01:40:00,
2013-07-06 21:50:00,76.5,73.7,29.86,North,-999,0.0,0.0,91,0.00,,,-99.99,0,WeatherLink 5.4,2013-07-07 01:50:00,
2013-07-06 22:00:00,76.5,73.7,29.86,North,-999,0.0,0.0,91,0.00,,,-99.99,0,WeatherLink 5.4,2013-07-07 02:00:00,
2013-07-06 22:10:00,76.7,73.9,29.86,North,-999,0.0,0.0,91,0.00,,,-99.99,0,WeatherLink 5.4,2013-07-07 02:10:00,
2013-07-06 22:20:00,76.7,73.9,29.86,North,-999,0.0,0.0,91,0.00,,,-99.99,0,WeatherLink 5.4,2013-07-07 02:20:00,
2013-07-06 22:30:00,76.7,73.9,29.86,North,-999,0.0,0.0,91,0.00,,,-99.99,0,WeatherLink 5.4,2013-07-07 02:30:00,
2013-07-06 22:40:00,76.5,73.7,29.86,North,-999,0.0,0.0,91,0.00,,,-99.99,0,WeatherLink 5.4,2013-07-07 02:40:00,
2013-07-06 22:50:00,76.5,73.7,29.86,North,-999,0.0,0.0,91,0.00,,,-99.99,0,WeatherLink 5.4,2013-07-07 02:50:00,
2013-07-06 23:00:00,76.3,73.5,29.86,North,-999,0.0,0.0,91,0.00,,,-99.99,0,WeatherLink 5.4,2013-07-07 03:00:00,
2013-07-06 23:10:00,76.3,73.5,29.86,North,-999,0.0,0.0,91,0.00,,,-99.99,0,WeatherLink 5.4,2013-07-07 03:10:00,
2013-07-06 23:20:00,76.1,73.3,29.86,North,-999,0.0,0.0,91,0.00,,,-99.99,0,WeatherLink 5.4,2013-07-07 03:20:00,
2013-07-06 23:30:00,76.0,73.2,29.86,North,-999,0.0,0.0,91,0.00,,,-99.99,0,WeatherLink 5.4,2013-07-07 03:30:00,
2013-07-06 23:40:00,76.0,73.2,29.86,North,-999,0.0,0.0,91,0.00,,,-99.99,0,WeatherLink 5.4,2013-07-07 03:40:00,
2013-07-06 23:50:00,75.9,73.1,29.86,North,-999,0.0,0.0,91,0.00,,,-99.99,0,WeatherLink 5.4,2013-07-07 03:50:00,